| time (UTC) | temp F | wind direction | speed knots | gust knots | rain 1hr in | rain 24hr in | rain mn in | humidity % | barometer mb |
| 20260903180503 | 74 | 291 | 5.2 | 13.9 | 0.00 | 0.16 | 0.00 | 69 | 1011.5 |
| 20260903180002 | 74 | 315 | 7.0 | 13.0 | 0.00 | 0.16 | 0.00 | 69 | 1011.5 |
| 20260903175501 | 73 | 294 | 7.0 | 11.3 | 0.00 | 0.16 | 0.00 | 71 | 1011.7 |
| 20260903175002 | 73 | 296 | 7.8 | 13.9 | 0.00 | 0.16 | 0.00 | 74 | 1011.7 |
| 20260903174502 | 74 | 294 | 9.6 | 13.9 | 0.00 | 0.16 | 0.00 | 74 | 1011.7 |
| 20260903174002 | 74 | 308 | 8.7 | 13.0 | 0.00 | 0.16 | 0.00 | 73 | 1011.6 |
| 20260903173600 | 74 | 290 | 4.3 | 9.6 | 0.00 | 0.16 | 0.00 | 76 | 1011.6 |
| 20260903173059 | 73 | 305 | 1.7 | 9.6 | 0.00 | 0.16 | 0.00 | 79 | 1011.7 |
| 20260903172558 | 73 | 294 | 2.6 | 7.8 | 0.00 | 0.16 | 0.00 | 78 | 1011.8 |
| 20260903172057 | 73 | 313 | 3.5 | 9.6 | 0.00 | 0.16 | 0.00 | 79 | 1011.7 |
| 20260903171558 | 72 | 275 | 2.6 | 9.6 | 0.00 | 0.16 | 0.00 | 79 | 1011.8 |
| 20260903171056 | 73 | 306 | 4.3 | 9.6 | 0.00 | 0.16 | 0.00 | 79 | 1011.9 |
| 20260903170556 | 73 | 327 | 2.6 | 7.8 | 0.00 | 0.16 | 0.00 | 81 | 1011.8 |
| 20260903170056 | 73 | 288 | 3.5 | 11.3 | 0.00 | 0.16 | 0.00 | 81 | 1011.9 |
| 20260903165555 | 72 | 306 | 5.2 | 11.3 | 0.00 | 0.28 | 0.00 | 81 | 1011.8 |
| 20260903165055 | 72 | 297 | 4.3 | 9.6 | 0.00 | 0.28 | 0.00 | 82 | 1011.9 |
| 20260903164557 | 72 | 302 | 3.5 | 10.4 | 0.00 | 0.28 | 0.00 | 81 | 1011.9 |
| 20260903164052 | 72 | 302 | 5.2 | 10.4 | 0.00 | 0.28 | 0.00 | 82 | 1012.0 |
| 20260903163551 | 71 | 283 | 3.5 | 9.6 | 0.00 | 0.28 | 0.00 | 83 | 1012.0 |
| 20260903163056 | 71 | 291 | 2.6 | 8.7 | 0.00 | 0.28 | 0.00 | 84 | 1012.2 |
| 20260903162550 | 71 | 311 | 4.3 | 8.7 | 0.00 | 0.28 | 0.00 | 84 | 1012.1 |
| 20260903162051 | 71 | 284 | 2.6 | 7.0 | 0.00 | 0.28 | 0.00 | 84 | 1012.1 |
| 20260903161549 | 71 | 284 | 0.0 | 5.2 | 0.00 | 0.28 | 0.00 | 84 | 1012.0 |
| 20260903161049 | 71 | 265 | 3.5 | 7.0 | 0.00 | 0.28 | 0.00 | 84 | 1012.1 |
| 20260903160549 | 71 | 305 | 1.7 | 9.6 | 0.00 | 0.28 | 0.00 | 84 | 1012.1 |
| 20260903160052 | 71 | 310 | 1.7 | 9.6 | 0.00 | 0.28 | 0.00 | 84 | 1012.2 |
| 20260903155548 | 71 | 302 | 1.7 | 5.2 | 0.00 | 0.37 | 0.00 | 85 | 1012.3 |
| 20260903155048 | 71 | 284 | 1.7 | 7.0 | 0.00 | 0.37 | 0.00 | 85 | 1012.3 |
| 20260903154604 | 71 | 305 | 2.6 | 7.8 | 0.00 | 0.37 | 0.00 | 85 | 1012.3 |
| 20260903154048 | 71 | 307 | 2.6 | 7.8 | 0.00 | 0.37 | 0.00 | 85 | 1012.3 |
| 20260903153550 | 71 | 275 | 2.6 | 7.8 | 0.00 | 0.37 | 0.00 | 84 | 1012.4 |
| 20260903153050 | 71 | 313 | 3.5 | 7.0 | 0.00 | 0.37 | 0.00 | 84 | 1012.4 |
| 20260903152547 | 71 | 269 | 0.9 | 7.0 | 0.00 | 0.37 | 0.00 | 84 | 1012.4 |
| 20260903152047 | 71 | 250 | 0.9 | 7.0 | 0.00 | 0.37 | 0.00 | 83 | 1012.3 |
| 20260903151546 | 71 | 249 | 0.9 | 6.1 | 0.00 | 0.37 | 0.00 | 83 | 1012.4 |
| 20260903151046 | 71 | 270 | 1.7 | 6.1 | 0.00 | 0.37 | 0.00 | 83 | 1012.3 |
| 20260903150546 | 71 | 217 | 0.9 | 4.3 | 0.00 | 0.37 | 0.00 | 82 | 1012.3 |
| 20260903150046 | 71 | 201 | 0.0 | 5.2 | 0.00 | 0.37 | 0.00 | 82 | 1012.4 |
| 20260903145548 | 71 | 198 | 0.9 | 6.1 | 0.00 | 0.37 | 0.00 | 82 | 1012.3 |
| 20260903145045 | 71 | 240 | 0.0 | 6.1 | 0.00 | 0.37 | 0.00 | 82 | 1012.3 |
| 20260903144544 | 71 | 234 | 0.9 | 6.1 | 0.00 | 0.37 | 0.00 | 83 | 1012.2 |
| 20260903144046 | 71 | 221 | 0.0 | 2.6 | 0.00 | 0.37 | 0.00 | 83 | 1012.3 |
| 20260903143543 | 71 | 263 | 0.0 | 2.6 | 0.00 | 0.37 | 0.00 | 83 | 1012.3 |
| 20260903143100 | 71 | 266 | 0.0 | 2.6 | 0.00 | 0.37 | 0.00 | 83 | 1012.2 |
| 20260903142542 | 70 | 107 | 0.9 | 3.5 | 0.00 | 0.37 | 0.00 | 85 | 1012.2 |
| 20260903142041 | 70 | 177 | 0.9 | 3.5 | 0.00 | 0.37 | 0.00 | 85 | 1012.1 |
| 20260903141555 | 69 | 261 | 0.0 | 6.1 | 0.00 | 0.37 | 0.00 | 87 | 1012.2 |
| 20260903141038 | 69 | 230 | 0.9 | 6.1 | 0.00 | 0.37 | 0.00 | 87 | 1012.2 |
| 20260903140537 | 69 | 164 | 0.9 | 6.1 | 0.00 | 0.37 | 0.00 | 88 | 1012.0 |
| 20260903140039 | 68 | 206 | 1.7 | 4.3 | 0.00 | 0.37 | 0.00 | 88 | 1012.0 |
| 20260903135536 | 68 | 262 | 0.9 | 6.1 | 0.00 | 0.37 | 0.00 | 88 | 1012.1 |
| 20260903135037 | 68 | 228 | 1.7 | 6.1 | 0.00 | 0.37 | 0.00 | 88 | 1012.1 |
| 20260903134537 | 68 | 244 | 0.9 | 3.5 | 0.00 | 0.37 | 0.00 | 88 | 1012.0 |
| 20260903134035 | 68 | 207 | 0.0 | 3.5 | 0.00 | 0.37 | 0.00 | 88 | 1012.0 |
| 20260903133534 | 68 | 289 | 0.0 | 2.6 | 0.00 | 0.37 | 0.00 | 89 | 1012.1 |
| 20260903133035 | 68 | 273 | 0.0 | 3.5 | 0.00 | 0.37 | 0.00 | 89 | 1012.1 |
| 20260903132533 | 67 | 271 | 0.9 | 3.5 | 0.00 | 0.37 | 0.00 | 89 | 1012.1 |
| 20260903132033 | 67 | 333 | 0.0 | 4.3 | 0.00 | 0.37 | 0.00 | 89 | 1012.1 |
| 20260903131534 | 67 | 226 | 1.7 | 4.3 | 0.00 | 0.37 | 0.00 | 90 | 1012.1 |
| 20260903131033 | 67 | 254 | 0.9 | 7.0 | 0.00 | 0.37 | 0.00 | 90 | 1012.1 |
| 20260903130533 | 67 | 211 | 0.9 | 7.0 | 0.00 | 0.37 | 0.00 | 90 | 1012.2 |
| 20260903130036 | 67 | 191 | 2.6 | 4.3 | 0.00 | 0.37 | 0.00 | 90 | 1012.1 |
| 20260903125532 | 66 | 222 | 1.7 | 4.3 | 0.00 | 0.37 | 0.00 | 90 | 1012.2 |
| 20260903125031 | 66 | 188 | 1.7 | 5.2 | 0.00 | 0.37 | 0.00 | 90 | 1012.1 |
| 20260903124531 | 66 | 180 | 2.6 | 6.1 | 0.00 | 0.37 | 0.00 | 90 | 1011.9 |
| 20260903124031 | 66 | 190 | 1.7 | 3.5 | 0.00 | 0.37 | 0.00 | 90 | 1012.1 |
| 20260903123531 | 66 | 179 | 0.9 | 4.3 | 0.00 | 0.37 | 0.00 | 90 | 1012.2 |
| 20260903123034 | 66 | 193 | 1.7 | 4.3 | 0.00 | 0.37 | 0.00 | 90 | 1012.2 |
| 20260903122530 | 66 | 182 | 0.9 | 7.0 | 0.00 | 0.37 | 0.00 | 90 | 1012.2 |
| 20260903122030 | 66 | 189 | 0.9 | 7.0 | 0.00 | 0.37 | 0.00 | 90 | 1012.3 |
| 20260903121530 | 66 | 220 | 1.7 | 6.1 | 0.00 | 0.37 | 0.00 | 90 | 1012.2 |
| 20260903121029 | 66 | 205 | 1.7 | 5.2 | 0.00 | 0.37 | 0.00 | 90 | 1012.2 |
| 20260903120529 | 66 | 202 | 1.7 | 6.1 | 0.00 | 0.37 | 0.00 | 90 | 1012.2 |
| 20260903120029 | 66 | 211 | 2.6 | 6.1 | 0.00 | 0.37 | 0.00 | 90 | 1012.0 |
| 20260903115528 | 66 | 196 | 0.9 | 5.2 | 0.00 | 0.37 | 0.00 | 90 | 1012.0 |
| 20260903115028 | 66 | 196 | 3.5 | 7.8 | 0.00 | 0.37 | 0.00 | 90 | 1011.9 |
| 20260903114528 | 66 | 220 | 4.3 | 7.8 | 0.00 | 0.37 | 0.00 | 90 | 1011.9 |
| 20260903114028 | 66 | 206 | 3.5 | 7.8 | 0.00 | 0.37 | 0.00 | 90 | 1011.8 |
| 20260903113528 | 66 | 204 | 3.5 | 7.8 | 0.00 | 0.37 | 0.00 | 90 | 1011.9 |
| 20260903113030 | 66 | 219 | 0.9 | 5.2 | 0.00 | 0.37 | 0.00 | 90 | 1011.9 |
| 20260903112527 | 66 | 215 | 0.9 | 8.7 | 0.00 | 0.37 | 0.00 | 90 | 1011.9 |
| 20260903112032 | 66 | 200 | 2.6 | 8.7 | 0.00 | 0.37 | 0.00 | 90 | 1011.9 |
| 20260903111535 | 66 | 175 | 1.7 | 8.7 | 0.00 | 0.37 | 0.00 | 89 | 1012.0 |
| 20260903111026 | 66 | 198 | 3.5 | 7.8 | 0.00 | 0.37 | 0.00 | 89 | 1012.0 |
| 20260903110526 | 66 | 194 | 1.7 | 8.7 | 0.00 | 0.37 | 0.00 | 89 | 1012.0 |
| 20260903110025 | 66 | 215 | 4.3 | 9.6 | 0.00 | 0.37 | 0.00 | 89 | 1011.9 |
| 20260903105525 | 66 | 216 | 3.5 | 13.9 | 0.00 | 0.37 | 0.00 | 89 | 1011.9 |
| 20260903105025 | 66 | 249 | 2.6 | 13.9 | 0.00 | 0.37 | 0.00 | 89 | 1011.9 |
| 20260903104525 | 66 | 208 | 3.5 | 8.7 | 0.00 | 0.37 | 0.00 | 89 | 1011.9 |
| 20260903104025 | 66 | 201 | 2.6 | 8.7 | 0.00 | 0.37 | 0.00 | 88 | 1012.0 |
| 20260903103524 | 66 | 207 | 2.6 | 7.8 | 0.00 | 0.37 | 0.00 | 88 | 1012.0 |
| 20260903103027 | 66 | 209 | 2.6 | 9.6 | 0.00 | 0.37 | 0.00 | 88 | 1012.1 |
| 20260903102524 | 66 | 223 | 2.6 | 9.6 | 0.00 | 0.37 | 0.00 | 88 | 1012.0 |
| 20260903102022 | 66 | 205 | 1.7 | 5.2 | 0.00 | 0.37 | 0.00 | 88 | 1012.1 |
| 20260903101535 | 66 | 160 | 0.9 | 7.8 | 0.00 | 0.37 | 0.00 | 88 | 1011.9 |
| 20260903101022 | 66 | 288 | 1.7 | 7.8 | 0.00 | 0.37 | 0.00 | 88 | 1011.9 |
| 20260903100522 | 66 | 236 | 0.0 | 7.0 | 0.00 | 0.37 | 0.00 | 88 | 1011.8 |
| 20260903100021 | 66 | 188 | 1.7 | 7.0 | 0.00 | 0.37 | 0.00 | 89 | 1011.8 |
| 20260903095521 | 66 | 225 | 1.7 | 8.7 | 0.00 | 0.37 | 0.00 | 89 | 1011.8 |
| 20260903095120 | 66 | 207 | 2.6 | 8.7 | 0.00 | 0.37 | 0.00 | 89 | 1011.8 |
| 20260903094519 | 66 | 208 | 1.7 | 6.1 | 0.00 | 0.37 | 0.00 | 90 | 1011.7 |
| 20260903094017 | 66 | 250 | 0.9 | 5.2 | 0.00 | 0.37 | 0.00 | 90 | 1011.7 |
| 20260903093516 | 66 | 40 | 1.7 | 5.2 | 0.00 | 0.37 | 0.00 | 90 | 1011.7 |
| 20260903093015 | 66 | 174 | 1.7 | 5.2 | 0.00 | 0.37 | 0.00 | 90 | 1011.6 |
| 20260903092517 | 65 | 175 | 0.9 | 5.2 | 0.00 | 0.37 | 0.00 | 90 | 1011.7 |
| 20260903092014 | 65 | 192 | 0.0 | 5.2 | 0.00 | 0.37 | 0.00 | 90 | 1011.6 |
| 20260903091515 | 65 | 149 | 0.9 | 6.1 | 0.00 | 0.37 | 0.00 | 90 | 1011.7 |
| 20260903091012 | 65 | 206 | 0.9 | 6.1 | 0.00 | 0.37 | 0.00 | 90 | 1011.6 |
| 20260903090512 | 66 | 192 | 2.6 | 6.1 | 0.00 | 0.37 | 0.00 | 90 | 1011.5 |
| 20260903090011 | 66 | 213 | 1.7 | 6.1 | 0.00 | 0.37 | 0.00 | 90 | 1011.6 |
| 20260903085508 | 66 | 46 | 0.0 | 4.3 | 0.00 | 0.37 | 0.00 | 90 | 1011.7 |
| 20260903085007 | 66 | 228 | 0.9 | 7.0 | 0.00 | 0.37 | 0.00 | 90 | 1011.7 |
| 20260903084506 | 66 | 258 | 0.0 | 7.0 | 0.00 | 0.37 | 0.00 | 91 | 1011.7 |
| 20260903084005 | 66 | 210 | 0.9 | 7.0 | 0.00 | 0.37 | 0.00 | 91 | 1011.7 |
| 20260903083504 | 66 | 209 | 2.6 | 7.0 | 0.00 | 0.37 | 0.00 | 91 | 1011.7 |
| 20260903083002 | 66 | 211 | 1.7 | 6.1 | 0.00 | 0.37 | 0.00 | 91 | 1011.7 |
| 20260903082500 | 66 | 247 | 2.6 | 6.1 | 0.00 | 0.37 | 0.00 | 91 | 1011.8 |
| 20260903082100 | 66 | 207 | 3.5 | 7.0 | 0.00 | 0.37 | 0.00 | 91 | 1011.8 |
| 20260903081600 | 66 | 238 | 3.5 | 9.6 | 0.00 | 0.37 | 0.00 | 91 | 1011.8 |
| 20260903081100 | 66 | 247 | 2.6 | 9.6 | 0.00 | 0.37 | 0.00 | 91 | 1011.8 |
| 20260903080553 | 65 | 155 | 1.7 | 6.1 | 0.00 | 0.37 | 0.00 | 91 | 1011.8 |
| 20260903080054 | 65 | 222 | 1.7 | 5.2 | 0.00 | 0.37 | 0.00 | 91 | 1011.9 |
| 20260903075558 | 65 | 197 | 1.7 | 5.2 | 0.00 | 0.37 | 0.00 | 92 | 1011.9 |
| 20260903075053 | 65 | 188 | 1.7 | 5.2 | 0.00 | 0.37 | 0.00 | 92 | 1011.9 |
| 20260903074553 | 65 | 308 | 1.7 | 6.1 | 0.00 | 0.37 | 0.00 | 92 | 1011.9 |
| 20260903074054 | 65 | 258 | 1.7 | 6.1 | 0.00 | 0.37 | 0.00 | 92 | 1011.9 |
| 20260903073553 | 65 | 196 | 0.9 | 4.3 | 0.00 | 0.37 | 0.00 | 92 | 1012.0 |
| 20260903073055 | 65 | 190 | 0.9 | 4.3 | 0.00 | 0.37 | 0.00 | 92 | 1012.0 |
| 20260903072552 | 65 | 36 | 0.9 | 4.3 | 0.00 | 0.37 | 0.00 | 92 | 1012.0 |
| 20260903072052 | 65 | 224 | 0.9 | 4.3 | 0.00 | 0.37 | 0.00 | 92 | 1012.0 |
| 20260903071552 | 65 | 317 | 0.0 | 6.1 | 0.00 | 0.37 | 0.00 | 92 | 1012.0 |
| 20260903071051 | 65 | 231 | 1.7 | 7.0 | 0.00 | 0.37 | 0.00 | 92 | 1012.0 |
| 20260903070550 | 65 | 193 | 0.0 | 7.0 | 0.00 | 0.37 | 0.00 | 91 | 1012.1 |
| 20260903070055 | 65 | 219 | 0.9 | 6.1 | 0.00 | 0.37 | 0.00 | 91 | 1012.0 |
| 20260903065551 | 65 | 194 | 1.7 | 6.1 | 0.00 | 0.37 | 0.00 | 92 | 1012.1 |
| 20260903065050 | 65 | 234 | 0.9 | 7.0 | 0.00 | 0.37 | 0.00 | 91 | 1012.1 |
| 20260903064550 | 65 | 187 | 0.9 | 7.8 | 0.00 | 0.37 | 0.00 | 92 | 1012.1 |
| 20260903064051 | 65 | 161 | 2.6 | 7.8 | 0.00 | 0.37 | 0.00 | 92 | 1012.0 |
| 20260903063549 | 65 | 213 | 1.7 | 7.8 | 0.00 | 0.37 | 0.00 | 92 | 1012.0 |
| 20260903063112 | 65 | 221 | 2.6 | 8.7 | 0.00 | 0.37 | 0.00 | 92 | 1012.0 |
| 20260903062546 | 65 | 207 | 4.3 | 8.7 | 0.00 | 0.37 | 0.00 | 92 | 1011.8 |
| 20260903062046 | 65 | 156 | 2.6 | 6.1 | 0.00 | 0.37 | 0.00 | 92 | 1011.9 |
| 20260903061546 | 65 | 206 | 0.9 | 6.1 | 0.00 | 0.37 | 0.00 | 92 | 1011.9 |
| 20260903061045 | 65 | 192 | 1.7 | 6.1 | 0.00 | 0.37 | 0.00 | 92 | 1011.9 |
| 20260903060545 | 65 | 227 | 1.7 | 6.1 | 0.00 | 0.37 | 0.00 | 92 | 1012.0 |
| 20260903060045 | 65 | 200 | 2.6 | 8.7 | 0.00 | 0.37 | 0.00 | 92 | 1011.9 |
| 20260903055545 | 65 | 10 | 1.7 | 10.4 | 0.00 | 0.37 | 0.00 | 92 | 1011.9 |
| 20260903055044 | 65 | 215 | 1.7 | 9.6 | 0.00 | 0.37 | 0.00 | 91 | 1011.8 |
| 20260903054545 | 65 | 142 | 0.9 | 7.0 | 0.00 | 0.37 | 0.00 | 92 | 1011.7 |
| 20260903054044 | 65 | 192 | 0.9 | 8.7 | 0.00 | 0.37 | 0.00 | 91 | 1011.7 |
| 20260903053546 | 65 | 209 | 2.6 | 12.2 | 0.00 | 0.37 | 0.00 | 92 | 1011.7 |
| 20260903053043 | 65 | 186 | 5.2 | 12.2 | 0.00 | 0.37 | 0.00 | 92 | 1011.8 |
| 20260903052543 | 65 | 200 | 3.5 | 11.3 | 0.00 | 0.37 | 0.00 | 92 | 1011.7 |
| 20260903052043 | 65 | 204 | 2.6 | 13.0 | 0.00 | 0.37 | 0.00 | 91 | 1011.6 |
| 20260903051545 | 65 | 202 | 3.5 | 13.0 | 0.00 | 0.37 | 0.00 | 91 | 1011.6 |
| 20260903051041 | 65 | 183 | 5.2 | 10.4 | 0.00 | 0.37 | 0.00 | 91 | 1011.5 |
| 20260903050540 | 65 | 198 | 3.5 | 12.2 | 0.00 | 0.37 | 0.00 | 91 | 1011.7 |
| 20260903050100 | 65 | 236 | 4.3 | 13.0 | 0.00 | 0.37 | 0.00 | 91 | 1011.9 |
| 20260903045540 | 65 | 252 | 4.3 | 11.3 | 0.00 | 0.37 | 0.00 | 91 | 1012.0 |
| 20260903045039 | 65 | 159 | 4.3 | 11.3 | 0.00 | 0.37 | 0.00 | 91 | 1012.1 |
| 20260903044539 | 65 | 192 | 5.2 | 12.2 | 0.00 | 0.37 | 0.00 | 92 | 1012.2 |
| 20260903044038 | 65 | 190 | 4.3 | 12.2 | 0.00 | 0.37 | 0.00 | 92 | 1012.2 |
| 20260903043539 | 64 | 218 | 3.5 | 12.2 | 0.00 | 0.37 | 0.00 | 92 | 1012.4 |
| 20260903043037 | 64 | 209 | 3.5 | 12.2 | 0.00 | 0.37 | 0.00 | 92 | 1012.4 |
| 20260903042537 | 64 | 203 | 4.3 | 12.2 | 0.01 | 0.37 | 0.00 | 92 | 1012.5 |
| 20260903042036 | 64 | 238 | 5.2 | 13.0 | 0.01 | 0.37 | 0.00 | 92 | 1012.7 |
| 20260903041535 | 64 | 234 | 5.2 | 13.0 | 0.01 | 0.37 | 0.00 | 92 | 1012.6 |
| 20260903041033 | 64 | 207 | 4.3 | 13.0 | 0.02 | 0.37 | 0.00 | 92 | 1012.5 |
| 20260903040532 | 64 | 194 | 0.9 | 7.8 | 0.02 | 0.37 | 0.00 | 91 | 1012.1 |
| 20260903040032 | 64 | 156 | 3.5 | 7.8 | 0.04 | 0.37 | 0.00 | 91 | 1011.8 |
| 20260903035530 | 64 | 150 | 1.7 | 10.4 | 0.04 | 0.37 | 0.37 | 91 | 1011.8 |
| 20260903035030 | 64 | 186 | 5.2 | 13.0 | 0.06 | 0.37 | 0.37 | 91 | 1011.8 |
| 20260903034531 | 64 | 196 | 3.5 | 13.0 | 0.06 | 0.37 | 0.37 | 91 | 1011.9 |
| 20260903034029 | 64 | 220 | 7.0 | 13.0 | 0.07 | 0.37 | 0.37 | 91 | 1012.2 |
| 20260903033533 | 65 | 187 | 4.3 | 16.5 | 0.08 | 0.37 | 0.37 | 91 | 1012.4 |
| 20260903033030 | 65 | 198 | 7.8 | 16.5 | 0.08 | 0.37 | 0.37 | 91 | 1012.4 |
| 20260903032528 | 65 | 208 | 5.2 | 8.7 | 0.08 | 0.36 | 0.36 | 91 | 1012.5 |
| 20260903032027 | 65 | 192 | 2.6 | 8.7 | 0.08 | 0.36 | 0.36 | 91 | 1012.9 |
| 20260903031528 | 65 | 150 | 3.5 | 14.8 | 0.09 | 0.36 | 0.36 | 91 | 1012.7 |
| 20260903031028 | 65 | 179 | 8.7 | 14.8 | 0.09 | 0.35 | 0.35 | 91 | 1012.2 |
| 20260903030527 | 65 | 183 | 7.0 | 20.0 | 0.09 | 0.34 | 0.34 | 91 | 1012.2 |
| 20260903030029 | 65 | 142 | 7.8 | 20.0 | 0.08 | 0.33 | 0.33 | 91 | 1012.2 |
| 20260903025526 | 65 | 175 | 2.6 | 14.8 | 0.09 | 0.33 | 0.33 | 91 | 1012.8 |
| 20260903025026 | 65 | 122 | 3.5 | 14.8 | 0.07 | 0.31 | 0.31 | 91 | 1012.7 |
| 20260903024526 | 65 | 149 | 6.1 | 13.9 | 0.08 | 0.31 | 0.31 | 91 | 1012.9 |
| 20260903024025 | 65 | 196 | 5.2 | 13.0 | 0.08 | 0.30 | 0.30 | 91 | 1013.1 |
| 20260903023525 | 65 | 213 | 6.1 | 13.9 | 0.07 | 0.28 | 0.28 | 91 | 1013.0 |
| 20260903023027 | 65 | 186 | 6.1 | 13.9 | 0.08 | 0.28 | 0.28 | 91 | 1013.1 |
| 20260903022526 | 65 | 192 | 3.5 | 7.8 | 0.07 | 0.28 | 0.28 | 91 | 1013.1 |
| 20260903022025 | 65 | 136 | 4.3 | 8.7 | 0.07 | 0.28 | 0.28 | 91 | 1013.0 |
| 20260903021529 | 65 | 170 | 2.6 | 9.6 | 0.06 | 0.27 | 0.27 | 91 | 1013.1 |
| 20260903021025 | 65 | 191 | 1.7 | 8.7 | 0.05 | 0.26 | 0.26 | 91 | 1013.2 |
| 20260903020525 | 65 | 182 | 2.6 | 8.7 | 0.04 | 0.25 | 0.25 | 90 | 1013.4 |
| 20260903020024 | 65 | 192 | 3.5 | 8.7 | 0.04 | 0.25 | 0.25 | 90 | 1013.3 |
| 20260903015524 | 66 | 186 | 4.3 | 7.8 | 0.03 | 0.24 | 0.24 | 90 | 1013.4 |
| 20260903015023 | 66 | 174 | 2.6 | 9.6 | 0.03 | 0.24 | 0.24 | 89 | 1013.6 |
| 20260903014523 | 66 | 140 | 4.3 | 9.6 | 0.02 | 0.23 | 0.23 | 89 | 1013.7 |
| 20260903014023 | 66 | 173 | 3.5 | 8.7 | 0.01 | 0.22 | 0.22 | 88 | 1014.0 |
| 20260903013522 | 66 | 194 | 3.5 | 8.7 | 0.01 | 0.22 | 0.22 | 87 | 1014.2 |
| 20260903013022 | 66 | 161 | 3.5 | 8.7 | 0.00 | 0.21 | 0.21 | 87 | 1014.3 |
| 20260903012525 | 67 | 200 | 3.5 | 7.0 | 0.00 | 0.21 | 0.21 | 87 | 1014.5 |
| 20260903012025 | 67 | 207 | 3.5 | 7.0 | 0.00 | 0.21 | 0.21 | 87 | 1014.9 |
| 20260903011522 | 67 | 165 | 2.6 | 7.8 | 0.00 | 0.21 | 0.21 | 87 | 1014.5 |
| 20260903011024 | 67 | 175 | 2.6 | 9.6 | 0.00 | 0.21 | 0.21 | 87 | 1014.4 |
| 20260903010521 | 67 | 195 | 3.5 | 9.6 | 0.00 | 0.21 | 0.21 | 87 | 1014.0 |
| 20260903010028 | 67 | 205 | 5.2 | 9.6 | 0.00 | 0.21 | 0.21 | 87 | 1014.0 |
| 20260903005522 | 67 | 194 | 3.5 | 9.6 | 0.00 | 0.21 | 0.21 | 86 | 1014.1 |
| 20260903005020 | 67 | 146 | 3.5 | 8.7 | 0.00 | 0.21 | 0.21 | 87 | 1014.2 |
| 20260903004521 | 67 | 164 | 3.5 | 11.3 | 0.00 | 0.21 | 0.21 | 86 | 1014.1 |
| 20260903004023 | 67 | 197 | 5.2 | 11.3 | 0.00 | 0.21 | 0.21 | 86 | 1014.2 |
| 20260903003520 | 67 | 121 | 3.5 | 8.7 | 0.00 | 0.21 | 0.21 | 86 | 1013.9 |
| 20260903003021 | 67 | 154 | 2.6 | 9.6 | 0.00 | 0.21 | 0.21 | 86 | 1013.9 |
| 20260903002520 | 67 | 171 | 6.1 | 10.4 | 0.00 | 0.21 | 0.21 | 86 | 1013.9 |
| 20260903002020 | 67 | 221 | 2.6 | 8.7 | 0.00 | 0.21 | 0.21 | 86 | 1014.1 |
| 20260903001520 | 67 | 195 | 4.3 | 8.7 | 0.00 | 0.21 | 0.21 | 86 | 1014.1 |
| 20260903001018 | 67 | 72 | 2.6 | 7.0 | 0.00 | 0.21 | 0.21 | 86 | 1013.8 |
| 20260903000518 | 67 | 199 | 2.6 | 11.3 | 0.00 | 0.21 | 0.21 | 86 | 1013.6 |
| 20260903000020 | 67 | 205 | 4.3 | 13.0 | 0.00 | 0.21 | 0.21 | 86 | 1013.5 |
| 20260902235518 | 68 | 181 | 3.5 | 9.6 | 0.00 | 0.21 | 0.21 | 86 | 1013.4 |
| 20260902235017 | 68 | 175 | 2.6 | 8.7 | 0.00 | 0.21 | 0.21 | 86 | 1013.6 |
| 20260902234519 | 68 | 196 | 3.5 | 8.7 | 0.00 | 0.21 | 0.21 | 86 | 1013.7 |
| 20260902234018 | 68 | 130 | 4.3 | 11.3 | 0.00 | 0.21 | 0.21 | 85 | 1013.5 |
| 20260902233520 | 68 | 200 | 6.1 | 11.3 | 0.00 | 0.21 | 0.21 | 85 | 1013.5 |
| 20260902233018 | 68 | 121 | 5.2 | 11.3 | 0.00 | 0.21 | 0.21 | 85 | 1013.4 |
| 20260902232517 | 68 | 202 | 6.1 | 11.3 | 0.00 | 0.21 | 0.21 | 85 | 1013.3 |
| 20260902232120 | 68 | 215 | 5.2 | 15.6 | 0.00 | 0.21 | 0.21 | 85 | 1013.2 |
| 20260902231534 | 68 | 166 | 3.5 | 12.2 | 0.00 | 0.21 | 0.21 | 86 | 1012.7 |
| 20260902231018 | 68 | 170 | 4.3 | 12.2 | 0.00 | 0.21 | 0.21 | 86 | 1012.6 |
| 20260902230516 | 68 | 180 | 3.5 | 15.6 | 0.00 | 0.21 | 0.21 | 86 | 1012.7 |
| 20260902230027 | 68 | 161 | 7.8 | 15.6 | 0.00 | 0.21 | 0.21 | 85 | 1012.5 |
| 20260902225516 | 68 | 146 | 6.1 | 13.9 | 0.00 | 0.21 | 0.21 | 86 | 1012.6 |
| 20260902225017 | 68 | 118 | 6.1 | 13.0 | 0.00 | 0.21 | 0.21 | 86 | 1012.7 |
| 20260902224514 | 69 | 146 | 4.3 | 9.6 | 0.00 | 0.21 | 0.21 | 86 | 1013.3 |
| 20260902224016 | 69 | 129 | 3.5 | 7.0 | 0.00 | 0.21 | 0.21 | 86 | 1013.5 |
| 20260902223511 | 69 | 142 | 2.6 | 7.8 | 0.00 | 0.21 | 0.21 | 86 | 1013.7 |
| 20260902223011 | 69 | 142 | 2.6 | 7.8 | 0.00 | 0.21 | 0.21 | 86 | 1014.0 |
| 20260902222510 | 69 | 134 | 2.6 | 6.1 | 0.00 | 0.21 | 0.21 | 85 | 1014.2 |
| 20260902222011 | 70 | 136 | 0.9 | 5.2 | 0.00 | 0.21 | 0.21 | 85 | 1014.4 |
| 20260902221517 | 70 | 155 | 1.7 | 4.3 | 0.00 | 0.21 | 0.21 | 85 | 1014.3 |
| 20260902221009 | 70 | 157 | 0.0 | 5.2 | 0.00 | 0.21 | 0.21 | 85 | 1014.7 |
| 20260902220508 | 70 | 193 | 0.9 | 5.2 | 0.00 | 0.21 | 0.21 | 84 | 1014.6 |
| 20260902220009 | 70 | 169 | 1.7 | 6.1 | 0.00 | 0.21 | 0.21 | 84 | 1014.8 |
| 20260902215510 | 70 | 160 | 1.7 | 7.0 | 0.00 | 0.21 | 0.21 | 84 | 1014.8 |
| 20260902215007 | 71 | 146 | 1.7 | 7.0 | 0.00 | 0.21 | 0.21 | 84 | 1014.8 |
| 20260902214508 | 71 | 144 | 0.9 | 6.1 | 0.00 | 0.21 | 0.21 | 84 | 1014.8 |
| 20260902214008 | 71 | 178 | 1.7 | 6.1 | 0.00 | 0.21 | 0.21 | 83 | 1014.8 |
| 20260902213507 | 71 | 192 | 0.9 | 6.1 | 0.00 | 0.21 | 0.21 | 83 | 1014.8 |
| 20260902213007 | 71 | 163 | 1.7 | 7.0 | 0.00 | 0.21 | 0.21 | 82 | 1014.8 |
| 20260902212507 | 71 | 179 | 2.6 | 7.0 | 0.00 | 0.21 | 0.21 | 82 | 1014.8 |
| 20260902212008 | 71 | 162 | 3.5 | 10.4 | 0.00 | 0.21 | 0.21 | 81 | 1014.9 |
| 20260902211508 | 71 | 189 | 7.0 | 10.4 | 0.00 | 0.21 | 0.21 | 81 | 1014.9 |
| 20260902211009 | 72 | 199 | 0.9 | 6.1 | 0.00 | 0.21 | 0.21 | 82 | 1014.9 |
| 20260902210507 | 72 | 180 | 1.7 | 6.1 | 0.00 | 0.21 | 0.21 | 82 | 1014.9 |
| 20260902210006 | 71 | 179 | 2.6 | 7.8 | 0.00 | 0.21 | 0.21 | 82 | 1014.8 |
| 20260902205605 | 72 | 129 | 3.5 | 7.8 | 0.00 | 0.21 | 0.21 | 82 | 1014.7 |
| 20260902205005 | 72 | 207 | 3.5 | 7.0 | 0.00 | 0.21 | 0.21 | 82 | 1014.9 |
| 20260902204505 | 72 | 197 | 1.7 | 7.0 | 0.00 | 0.21 | 0.21 | 81 | 1014.8 |
| 20260902204004 | 72 | 209 | 2.6 | 7.8 | 0.00 | 0.21 | 0.21 | 82 | 1014.8 |
| 20260902203504 | 72 | 166 | 3.5 | 8.7 | 0.00 | 0.21 | 0.21 | 82 | 1014.9 |
| 20260902203004 | 71 | 192 | 2.6 | 8.7 | 0.00 | 0.21 | 0.21 | 82 | 1014.9 |
| 20260902202504 | 71 | 183 | 3.5 | 7.8 | 0.00 | 0.21 | 0.21 | 82 | 1014.8 |
| 20260902202004 | 71 | 120 | 4.3 | 8.7 | 0.00 | 0.21 | 0.21 | 81 | 1014.7 |
| 20260902201502 | 71 | 181 | 4.3 | 8.7 | 0.00 | 0.21 | 0.21 | 82 | 1014.8 |
| 20260902201004 | 71 | 188 | 3.5 | 8.7 | 0.00 | 0.21 | 0.21 | 82 | 1014.8 |
| 20260902200501 | 71 | 199 | 4.3 | 8.7 | 0.00 | 0.21 | 0.21 | 83 | 1014.9 |
| 20260902200113 | 71 | 150 | 2.6 | 7.0 | 0.00 | 0.21 | 0.21 | 84 | 1014.9 |
| 20260902195601 | 70 | 159 | 2.6 | 7.0 | 0.00 | 0.21 | 0.21 | 85 | 1015.0 |
| 20260902195159 | 70 | 169 | 1.7 | 6.1 | 0.00 | 0.21 | 0.21 | 85 | 1014.9 |
| 20260902194601 | 70 | 198 | 2.6 | 8.7 | 0.00 | 0.21 | 0.21 | 84 | 1015.0 |
| 20260902194100 | 70 | 140 | 3.5 | 8.7 | 0.00 | 0.21 | 0.21 | 83 | 1015.0 |
| 20260902193602 | 70 | 157 | 2.6 | 7.8 | 0.00 | 0.21 | 0.21 | 83 | 1014.9 |
| 20260902193058 | 70 | 124 | 3.5 | 7.8 | 0.00 | 0.21 | 0.21 | 83 | 1015.1 |
| 20260902192558 | 70 | 132 | 2.6 | 6.1 | 0.00 | 0.21 | 0.21 | 83 | 1015.2 |
| 20260902192102 | 70 | 152 | 0.9 | 4.3 | 0.00 | 0.21 | 0.21 | 83 | 1015.3 |
| 20260902191557 | 70 | 144 | 0.9 | 6.1 | 0.00 | 0.21 | 0.21 | 84 | 1015.3 |
| 20260902191055 | 70 | 152 | 2.6 | 6.1 | 0.00 | 0.21 | 0.21 | 84 | 1015.2 |
| 20260902190555 | 69 | 192 | 1.7 | 6.1 | 0.00 | 0.21 | 0.21 | 85 | 1015.2 |
| 20260902190056 | 69 | 177 | 1.7 | 6.1 | 0.00 | 0.21 | 0.21 | 85 | 1015.2 |
| 20260902185556 | 69 | 182 | 1.7 | 6.1 | 0.00 | 0.21 | 0.21 | 86 | 1015.3 |
| 20260902185054 | 69 | 204 | 3.5 | 7.0 | 0.00 | 0.21 | 0.21 | 86 | 1015.3 |
| 20260902184559 | 69 | 156 | 0.9 | 5.2 | 0.00 | 0.21 | 0.21 | 86 | 1015.3 |
| 20260902184054 | 69 | 193 | 2.6 | 7.0 | 0.00 | 0.21 | 0.21 | 86 | 1015.4 |
| 20260902183554 | 69 | 190 | 1.7 | 7.0 | 0.00 | 0.21 | 0.21 | 87 | 1015.5 |
| 20260902183054 | 69 | 203 | 0.9 | 7.8 | 0.00 | 0.21 | 0.21 | 88 | 1015.6 |
| 20260902182552 | 70 | 232 | 0.9 | 7.8 | 0.00 | 0.21 | 0.21 | 90 | 1015.8 |
| 20260902182052 | 69 | 209 | 2.6 | 7.8 | 0.00 | 0.21 | 0.21 | 91 | 1015.8 |
| 20260902181550 | 69 | 271 | 0.0 | 5.2 | 0.00 | 0.21 | 0.21 | 92 | 1015.9 |
| 20260902181050 | 69 | 192 | 1.7 | 5.2 | 0.00 | 0.21 | 0.21 | 93 | 1016.0 |